FW4448 East Hampton NY US current weather conditions

sailwx.info

Wind from 270 at 7 knots gusting 13

Air temperature 6.7° C
Dewpoint 1.8° C

Last reported at 2019-Dec-15 14:03 UTC.
Time now 2019-Dec-15 15:06 UTC

Location: N 40°58' W 072°12'.
View on Google Maps.

See reports from other nearby stations

  
Tides and Currents Weather Stations Pressure Air Temp Water Temp Dewpoint Dewpoint Depression Visibility Wind Speed Wind Dir Waves Ship Positions
date/time (UTC)wind fromknots sea level pressurealtimeterstation pressurevisibilityair tempwater tempwave heightnotes
2019-Dec-15 14:03 270 7 gusting 13 6.7
2019-Dec-15 13:59 283 6 gusting 15 6.7
2019-Dec-15 13:53 313 4 gusting 18 6.7
2019-Dec-15 13:49 305 4 gusting 18 6.7
2019-Dec-15 13:43 285 6 gusting 18 6.7
2019-Dec-15 13:39 329 6 gusting 13 6.7
2019-Dec-15 13:33 311 4 gusting 14 6.7
2019-Dec-15 13:29 280 4 gusting 14 6.7
2019-Dec-15 13:23 279 3 gusting 16 6.7
2019-Dec-15 13:19 284 10 gusting 16 6.7
2019-Dec-15 13:13 283 3 gusting 14 6.7
2019-Dec-15 13:09 328 7 gusting 15 6.7
2019-Dec-15 13:03 306 7 gusting 18 6.7
2019-Dec-15 12:59 333 10 gusting 18 6.7
2019-Dec-15 12:53 325 10 gusting 21 6.7
2019-Dec-15 12:49 328 11 gusting 21 6.1
2019-Dec-15 12:43 339 10 gusting 16 6.1
2019-Dec-15 12:39 317 9 gusting 14 6.1
2019-Dec-15 12:33 302 6 gusting 16 6.1
2019-Dec-15 12:29 336 8 gusting 16 6.1
2019-Dec-15 12:23 277 6 gusting 16 6.1
2019-Dec-15 12:19 313 6 gusting 16 5.6
2019-Dec-15 12:13 289 6 gusting 16 5.6
2019-Dec-15 12:09 294 6 gusting 18 5.6
2019-Dec-15 12:03 276 9 gusting 18 5.6
2019-Dec-15 11:59 331 6 gusting 14 5.6
2019-Dec-15 11:53 308 7 gusting 14 5.6
2019-Dec-15 11:49 288 7 gusting 14 5.6
2019-Dec-15 11:43 291 9 gusting 15 5.6
2019-Dec-15 11:39 280 7 gusting 15 5.6
2019-Dec-15 11:33 294 7 gusting 16 5.6
2019-Dec-15 11:29 290 6 gusting 16 5.6
2019-Dec-15 11:23 205 6 gusting 13 5.6
2019-Dec-15 11:19 327 5 gusting 14 5.6
2019-Dec-15 11:13 279 6 gusting 18 5.6
2019-Dec-15 11:09 284 5 gusting 14 6.1
2019-Dec-15 11:03 295 5 gusting 15 6.1
2019-Dec-15 10:59 319 7 gusting 18 6.1
2019-Dec-15 10:53 339 7 gusting 18 6.1
2019-Dec-15 10:49 297 7 gusting 13 6.1
2019-Dec-15 10:43 315 5 gusting 13 6.1
2019-Dec-15 10:39 315 6 gusting 19 6.1
2019-Dec-15 10:33 313 9 gusting 21 6.1
2019-Dec-15 10:29 273 9 gusting 19 6.1
2019-Dec-15 10:23 304 9 gusting 19 6.1
2019-Dec-15 10:19 317 8 gusting 17 6.1
2019-Dec-15 10:13 280 6 gusting 16 6.1
2019-Dec-15 10:09 301 6 gusting 16 6.1
2019-Dec-15 10:03 292 8 gusting 16 6.1
2019-Dec-15 09:59 005 7 gusting 20 6.1
2019-Dec-15 09:53 339 9 gusting 20 6.1
2019-Dec-15 09:49 326 10 gusting 19 6.1
2019-Dec-15 09:43 306 9 gusting 19 6.1
2019-Dec-15 09:39 317 7 gusting 19 6.1
2019-Dec-15 09:33 323 6 gusting 16 6.1
2019-Dec-15 09:29 301 7 gusting 18 6.1
2019-Dec-15 09:23 317 10 gusting 18 6.1
2019-Dec-15 09:19 344 8 gusting 15 6.1
2019-Dec-15 09:13 321 10 gusting 22 6.1
2019-Dec-15 09:09 329 9 gusting 22 6.1
2019-Dec-15 09:03 321 8 gusting 23 6.1
2019-Dec-15 08:59 303 8 gusting 13 6.1
2019-Dec-15 08:53 275 4 gusting 13 6.1
2019-Dec-15 08:49 336 6 gusting 18 6.1
2019-Dec-15 08:43 290 7 gusting 19 6.1
2019-Dec-15 08:39 345 9 gusting 19 6.1
2019-Dec-15 08:33 284 7 gusting 15 6.1
2019-Dec-15 08:29 261 7 gusting 15 6.1
2019-Dec-15 08:23 325 6 gusting 14 6.1
2019-Dec-15 08:19 320 6 gusting 14 6.1
2019-Dec-15 08:13 330 6 gusting 16 6.1
2019-Dec-15 08:09 268 8 gusting 16 6.1
2019-Dec-15 08:03 294 6 gusting 13 6.1
2019-Dec-15 07:59 313 4 gusting 13 6.1
2019-Dec-15 07:53 267 6 gusting 13 6.1
2019-Dec-15 07:49 298 8 gusting 13 6.1
2019-Dec-15 07:43 280 7 gusting 14 6.1
2019-Dec-15 07:39 245 7 gusting 13 6.1
2019-Dec-15 07:33 316 6 gusting 18 6.1
2019-Dec-15 07:29 306 6 gusting 18 6.1
2019-Dec-15 07:23 305 8 gusting 16 6.1
2019-Dec-15 07:19 291 6 gusting 13 6.1
2019-Dec-15 07:13 325 7 gusting 14 6.1
2019-Dec-15 07:09 265 7 gusting 14 6.1
2019-Dec-15 07:03 305 6 gusting 15 6.1
2019-Dec-15 06:59 290 7 gusting 15 6.1
2019-Dec-15 06:53 257 6 gusting 16 6.1
2019-Dec-15 06:49 279 7 gusting 17 6.1
2019-Dec-15 06:43 300 9 gusting 17 6.1
2019-Dec-15 06:39 250 6 gusting 17 6.1
2019-Dec-15 06:33 290 8 gusting 24 6.1
2019-Dec-15 06:29 284 10 gusting 24 6.1
2019-Dec-15 06:23 275 6 gusting 18 6.1
2019-Dec-15 06:19 306 6 gusting 19 6.1
2019-Dec-15 06:13 272 7 gusting 19 6.1
2019-Dec-15 06:09 286 6 gusting 16 6.1
2019-Dec-15 06:03 336 10 gusting 20 6.7
2019-Dec-15 05:59 314 9 gusting 20 6.7
2019-Dec-15 05:53 306 10 gusting 18 6.7
2019-Dec-15 05:49 286 6 gusting 18 7.2
2019-Dec-15 05:43 331 9 gusting 18 7.2
2019-Dec-15 05:39 311 6 gusting 15 7.2
2019-Dec-15 05:33 302 7 gusting 16 7.2
2019-Dec-15 05:29 266 8 gusting 16 7.8
2019-Dec-15 05:23 319 7 gusting 29 7.8
2019-Dec-15 05:19 304 6 gusting 29 7.8
2019-Dec-15 05:13 273 8 gusting 19 7.8
2019-Dec-15 05:09 260 6 gusting 19 8.3
2019-Dec-15 05:03 291 6 gusting 13 8.3
2019-Dec-15 04:59 280 6 gusting 19 8.3
2019-Dec-15 04:53 267 10 gusting 19 8.3
2019-Dec-15 04:49 286 6 gusting 14 8.3
2019-Dec-15 04:43 311 9 gusting 16 8.9
2019-Dec-15 04:39 279 11 gusting 16 8.9
2019-Dec-15 04:33 285 6 gusting 19 8.9
2019-Dec-15 04:29 296 10 gusting 19 8.9
2019-Dec-15 04:23 273 6 gusting 17 8.9
2019-Dec-15 04:19 263 6 gusting 12 8.9
2019-Dec-15 04:13 272 6 gusting 11 8.9
2019-Dec-15 04:03 346 3 gusting 11 8.9
2019-Dec-15 03:59 275 4 gusting 11 8.9
2019-Dec-15 03:53 262 3 gusting 11 8.9
2019-Dec-15 03:49 263 3 gusting 10 8.9
2019-Dec-15 03:43 288 4 gusting 12 8.9
2019-Dec-15 03:39 300 4 gusting 12 8.9
2019-Dec-15 03:33 288 6 gusting 12 8.9
2019-Dec-15 03:29 294 5 gusting 16 8.9
2019-Dec-15 03:23 304 6 gusting 17 8.9
2019-Dec-15 03:19 279 6 gusting 13 8.9
2019-Dec-15 03:13 282 6 gusting 13 8.9
2019-Dec-15 03:09 261 4 gusting 13 8.9
2019-Dec-15 03:03 274 5 gusting 11 8.9
2019-Dec-15 02:59 283 4 gusting 16 8.9
2019-Dec-15 02:53 294 4 gusting 17 8.9
2019-Dec-15 02:49 242 6 gusting 26 8.9
2019-Dec-15 02:43 290 8 gusting 26 8.9
2019-Dec-15 02:39 227 8 gusting 22 8.9
2019-Dec-15 02:33 223 5 gusting 13 8.9
2019-Dec-15 02:29 320 3 gusting 14 8.9
2019-Dec-15 02:23 274 5 gusting 17 8.9
2019-Dec-15 02:19 225 5 gusting 17 8.9
2019-Dec-15 02:13 274 5 gusting 17 8.9
2019-Dec-15 02:09 310 6 gusting 17 8.9
2019-Dec-15 02:03 146 5 gusting 15 8.9
2019-Dec-15 01:59 178 5 gusting 15 8.9
2019-Dec-15 01:53 186 6 gusting 13 9.4
2019-Dec-15 01:49 279 4 gusting 12 9.4
2019-Dec-15 01:43 249 5 gusting 15 9.4
2019-Dec-15 01:39 281 7 gusting 16 10.0
2019-Dec-15 01:33 336 6 gusting 17 10.0
2019-Dec-15 01:29 287 6 gusting 15 10.0
2019-Dec-15 01:23 270 7 gusting 17 10.0
2019-Dec-15 01:19 228 6 gusting 17 10.0
2019-Dec-15 01:13 209 6 gusting 12 10.6
2019-Dec-15 01:09 270 3 gusting 12 10.6
2019-Dec-15 01:03 277 5 gusting 11 10.6
2019-Dec-15 00:59 263 4 gusting 11 10.6
2019-Dec-15 00:53 261 5 gusting 11 10.6
2019-Dec-15 00:49 208 3 gusting 12 10.6
2019-Dec-15 00:43 261 4 gusting 15 10.6
2019-Dec-15 00:39 263 5 gusting 15 10.6
2019-Dec-15 00:33 240 5 gusting 16 10.6
2019-Dec-15 00:29 235 6 gusting 16 10.6
2019-Dec-15 00:23 261 6 gusting 20 11.1
2019-Dec-15 00:19 274 6 gusting 20 11.1
2019-Dec-15 00:13 229 7 gusting 14 11.1
2019-Dec-15 00:09 249 4 gusting 16 11.1
2019-Dec-15 00:03 259 7 gusting 16 11.1
2019-Dec-14 23:59 250 6 gusting 17 11.1
2019-Dec-14 23:53 205 6 gusting 17 11.7
2019-Dec-14 23:49 283 5 gusting 17 11.7
2019-Dec-14 23:43 249 4 gusting 17 11.7
2019-Dec-14 23:39 211 6 gusting 17 11.7
2019-Dec-14 23:33 273 7 gusting 18 11.7
2019-Dec-14 23:29 222 6 gusting 19 11.7
2019-Dec-14 23:23 219 6 gusting 21 12.2
2019-Dec-14 23:19 233 9 gusting 21 12.2
2019-Dec-14 23:13 194 7 gusting 18 12.2
2019-Dec-14 23:09 221 6 gusting 16 12.2
2019-Dec-14 23:03 241 6 gusting 14 12.2
2019-Dec-14 22:59 227 5 gusting 14 12.2
2019-Dec-14 22:53 257 5 gusting 14 12.8
2019-Dec-14 22:49 223 4 gusting 14 12.8
2019-Dec-14 22:43 230 5 gusting 20 13.3
2019-Dec-14 22:39 254 6 gusting 20 13.3
2019-Dec-14 22:33 206 6 gusting 19 13.3
2019-Dec-14 22:29 216 8 gusting 19 13.3
2019-Dec-14 22:23 263 7 gusting 18 13.3
2019-Dec-14 22:19 249 8 gusting 18 13.3
2019-Dec-14 22:13 207 6 gusting 14 13.3
2019-Dec-14 22:09 225 7 gusting 19 13.3
2019-Dec-14 22:03 243 10 gusting 19 13.3
2019-Dec-14 21:59 216 6 gusting 18 13.3
2019-Dec-14 21:53 256 7 gusting 16 13.3
2019-Dec-14 21:49 177 6 gusting 14 13.3
2019-Dec-14 21:43 215 4 gusting 14 13.3
2019-Dec-14 21:39 236 7 gusting 13 13.3
2019-Dec-14 21:33 256 7 gusting 15 12.8
2019-Dec-14 21:29 250 6 gusting 16 12.8
2019-Dec-14 21:23 176 5 gusting 13 12.8
2019-Dec-14 21:19 240 6 gusting 13 12.8
2019-Dec-14 21:09 203 6 gusting 13 12.8
2019-Dec-14 21:03 267 6 gusting 14 12.8
2019-Dec-14 20:59 237 5 gusting 14 12.8
2019-Dec-14 20:53 148 6 gusting 14 13.3
2019-Dec-14 20:49 261 4 gusting 14 13.3
2019-Dec-14 20:43 015 5 gusting 13 13.3
2019-Dec-14 20:39 248 5 gusting 14 12.8
2019-Dec-14 20:33 197 6 gusting 14 12.8
2019-Dec-14 20:29 196 6 gusting 14 12.8
2019-Dec-14 20:23 217 7 gusting 14 12.8
2019-Dec-14 20:19 213 3 gusting 10 12.8
2019-Dec-14 20:13 205 4 gusting 10 12.8
2019-Dec-14 20:09 229 5 gusting 8 12.8
2019-Dec-14 20:03 200 5 gusting 10 12.8
2019-Dec-14 19:59 196 5 gusting 10 12.8
2019-Dec-14 19:53 185 4 gusting 12 12.8
2019-Dec-14 19:49 225 5 gusting 12 12.8
2019-Dec-14 19:43 192 4 gusting 12 12.8
2019-Dec-14 19:39 207 3 gusting 12 12.8
2019-Dec-14 19:33 234 3 gusting 9 12.8
2019-Dec-14 19:29 194 3 gusting 7 12.8
2019-Dec-14 19:23 232 3 gusting 8 12.8
2019-Dec-14 19:19 202 3 gusting 8 12.8
2019-Dec-14 19:13 206 3 gusting 8 12.8
2019-Dec-14 19:09 220 5 gusting 8 12.8
2019-Dec-14 19:03 227 3 gusting 8 12.8
2019-Dec-14 18:59 205 5 gusting 8 12.8
2019-Dec-14 18:53 196 3 gusting 9 12.8
2019-Dec-14 18:49 217 3 gusting 7 12.8
2019-Dec-14 18:43 217 2 gusting 9 12.8
2019-Dec-14 18:39 213 4 gusting 9 12.8
2019-Dec-14 18:33 181 3 gusting 9 12.8
2019-Dec-14 18:29 186 2 gusting 6 12.8
2019-Dec-14 18:23 219 4 gusting 6 12.8
2019-Dec-14 18:19 205 1 gusting 6 12.8
2019-Dec-14 18:13 237 1 gusting 6 12.8
2019-Dec-14 18:09 184 1 gusting 6 12.8
2019-Dec-14 18:03 164 2 gusting 6 13.3
2019-Dec-14 17:59 188 1 gusting 6 13.3
2019-Dec-14 17:53 200 2 gusting 6 12.8
2019-Dec-14 17:49 200 2 gusting 5 12.8
2019-Dec-14 17:43 160 1 gusting 4 12.8
2019-Dec-14 17:39 199 1 gusting 4 12.8
2019-Dec-14 17:33 219 1 gusting 5 12.8
2019-Dec-14 17:29 191 1 gusting 7 13.3
2019-Dec-14 17:23 209 2 gusting 7 13.3
2019-Dec-14 17:19 220 3 gusting 7 13.3
2019-Dec-14 17:13 159 2 gusting 7 13.3
2019-Dec-14 17:09 203 3 gusting 7 13.3
2019-Dec-14 17:03 200 2 gusting 7 13.3
2019-Dec-14 16:59 212 2 gusting 8 13.3
2019-Dec-14 16:53 224 2 gusting 8 13.3
2019-Dec-14 16:49 241 2 gusting 6 13.3
2019-Dec-14 16:43 202 4 gusting 12 13.3
2019-Dec-14 16:39 211 4 gusting 12 13.3
2019-Dec-14 16:33 204 4 gusting 10 13.3
2019-Dec-14 16:29 229 4 gusting 10 13.3
2019-Dec-14 16:23 203 4 gusting 13 13.3
2019-Dec-14 16:19 244 3 gusting 13 13.3
2019-Dec-14 16:13 211 4 gusting 10 13.3
2019-Dec-14 16:09 257 4 gusting 10 13.3
2019-Dec-14 16:03 229 4 gusting 8 13.3
2019-Dec-14 15:59 207 3 gusting 11 13.9
2019-Dec-14 15:53 254 4 gusting 11 13.9
2019-Dec-14 15:49 209 4 gusting 9 13.9
2019-Dec-14 15:43 181 6 gusting 9 13.9
2019-Dec-14 15:39 223 5 gusting 11 13.9
2019-Dec-14 15:33 236 5 gusting 11 13.9
2019-Dec-14 15:29 222 3 gusting 11 13.9
2019-Dec-14 15:23 203 5 gusting 12 13.9
2019-Dec-14 15:19 227 6 gusting 13 13.9
2019-Dec-14 15:13 223 7 gusting 13 13.9
2019-Dec-14 15:09 218 5 gusting 13 13.9
2019-Dec-14 15:03 202 6 gusting 10 13.3
2019-Dec-14 14:59 244 4 gusting 10 13.3
2019-Dec-14 14:53 246 5 gusting 10 13.3
2019-Dec-14 14:49 246 4 gusting 10 13.3
2019-Dec-14 14:43 207 4 gusting 9 13.3
2019-Dec-14 14:39 195 3 gusting 9 13.3
2019-Dec-14 14:33 215 5 gusting 9 13.3
2019-Dec-14 14:29 225 2 gusting 10 13.3
2019-Dec-14 14:23 192 3 gusting 6 13.3
2019-Dec-14 14:19 215 3 gusting 6 13.3
2019-Dec-14 14:13 224 2 gusting 7 13.3
2019-Dec-14 14:09 190 2 gusting 7 12.8
2019-Dec-14 14:03 184 2 gusting 7 12.8
2019-Dec-14 13:59 174 4 gusting 8 12.8
2019-Dec-14 13:53 190 2 gusting 6 12.8
2019-Dec-14 13:49 155 2 gusting 6 12.8
2019-Dec-14 13:43 176 2 gusting 6 12.8
2019-Dec-14 13:39 184 1 gusting 6 12.8
2019-Dec-14 13:33 173 2 gusting 6 12.8
2019-Dec-14 13:29 198 2 gusting 7 12.8
2019-Dec-14 13:23 182 2 gusting 7 12.8
2019-Dec-14 13:19 173 3 gusting 6 12.8
2019-Dec-14 13:13 169 4 gusting 6 12.8
2019-Dec-14 13:09 130 2 gusting 6 12.8
2019-Dec-14 13:03 182 3 gusting 7 12.8
2019-Dec-14 12:59 176 2 gusting 7 12.8
2019-Dec-14 12:53 202 4 gusting 7 12.8
2019-Dec-14 12:49 186 2 gusting 9 12.8
2019-Dec-14 12:43 221 4 gusting 9 12.8
2019-Dec-14 12:39 145 3 gusting 7 12.8
2019-Dec-14 12:33 163 2 gusting 8 12.8
2019-Dec-14 12:29 227 4 gusting 10 12.8
2019-Dec-14 12:23 205 4 gusting 13 12.8
2019-Dec-14 12:19 161 3 gusting 9 12.8
2019-Dec-14 12:13 165 4 gusting 9 12.8
2019-Dec-14 12:09 157 5 gusting 9 12.8
2019-Dec-14 12:03 201 4 gusting 10 12.8
2019-Dec-14 11:59 198 3 gusting 12 12.8
2019-Dec-14 11:53 159 4 gusting 12 12.8
2019-Dec-14 11:49 164 4 gusting 10 12.8
2019-Dec-14 11:43 153 5 gusting 11 12.8
2019-Dec-14 11:39 165 4 gusting 13 12.8
2019-Dec-14 11:33 170 4 gusting 13 12.8
2019-Dec-14 11:29 281 3 gusting 12 12.8
2019-Dec-14 11:23 173 4 gusting 12 12.8
2019-Dec-14 11:19 166 3 gusting 12 12.8
2019-Dec-14 10:59 178 3 gusting 9 12.8
2019-Dec-14 10:53 181 4 gusting 10 12.8
2019-Dec-14 10:49 212 6 gusting 10 12.8
2019-Dec-14 10:43 192 5 gusting 10 12.8
2019-Dec-14 10:39 132 5 gusting 13 12.8
2019-Dec-14 10:33 180 5 gusting 12 12.8
2019-Dec-14 10:29 158 6 gusting 11 12.8
2019-Dec-14 10:23 158 4 gusting 13 12.8
2019-Dec-14 10:19 196 6 gusting 13 12.8
2019-Dec-14 10:13 082 6 gusting 11 12.2
2019-Dec-14 10:09 182 3 gusting 12 12.2
2019-Dec-14 10:03 130 5 gusting 13 12.2
2019-Dec-14 09:59 184 6 gusting 13 12.2
2019-Dec-14 09:53 150 5 gusting 14 12.2
2019-Dec-14 09:49 151 3 gusting 12 12.2
2019-Dec-14 09:43 146 6 gusting 16 12.2
2019-Dec-14 09:39 178 6 gusting 16 12.2
2019-Dec-14 09:33 192 5 gusting 14 12.2
2019-Dec-14 09:29 174 3 gusting 12 12.2
2019-Dec-14 09:23 156 4 gusting 13 12.2
2019-Dec-14 09:19 165 6 gusting 13 12.2
2019-Dec-14 09:03 153 6 gusting 14 12.2
2019-Dec-14 09:00 148 6 gusting 15 12.2
2019-Dec-14 08:53 121 7 gusting 15 12.2
2019-Dec-14 08:49 153 6 gusting 16 12.2
2019-Dec-14 08:43 165 6 gusting 15 12.2
2019-Dec-14 08:39 205 8 gusting 15 12.2
2019-Dec-14 08:33 184 6 gusting 18 12.2
2019-Dec-14 08:29 154 6 gusting 13 12.2
2019-Dec-14 08:23 186 4 gusting 13 12.2
2019-Dec-14 08:19 180 6 gusting 13 12.2
2019-Dec-14 08:13 127 6 gusting 13 12.2
2019-Dec-14 08:09 175 8 gusting 18 12.2
2019-Dec-14 08:03 144 7 gusting 18 12.2
2019-Dec-14 07:59 165 7 gusting 17 12.2
2019-Dec-14 07:53 177 6 gusting 18 12.2
2019-Dec-14 07:49 177 6 gusting 16 12.2
2019-Dec-14 07:43 146 6 gusting 19 12.2
2019-Dec-14 07:39 165 6 gusting 19 12.2
2019-Dec-14 07:33 215 7 gusting 19 12.2
2019-Dec-14 07:29 100 7 gusting 19 11.7
2019-Dec-14 07:23 142 6 gusting 14 11.7
2019-Dec-14 07:19 167 6 gusting 17 11.7
2019-Dec-14 07:13 153 7 gusting 19 11.7
2019-Dec-14 07:09 134 6 gusting 19 11.7
2019-Dec-14 07:03 146 10 gusting 17 11.7
2019-Dec-14 06:59 144 6 gusting 16 11.7
2019-Dec-14 06:53 182 7 gusting 16 11.7
2019-Dec-14 06:49 180 6 gusting 16 11.7
2019-Dec-14 06:43 145 8 gusting 16 11.7
2019-Dec-14 06:39 133 6 gusting 17 11.7
2019-Dec-14 06:33 129 6 gusting 24 11.7
2019-Dec-14 06:29 123 6 gusting 24 11.7
2019-Dec-14 06:23 126 6 gusting 13 11.7
2019-Dec-14 06:19 071 6 gusting 14 11.7
2019-Dec-14 06:13 081 6 gusting 16 11.7
2019-Dec-14 06:09 134 9 gusting 16 11.7
2019-Dec-14 06:03 186 6 gusting 15 11.7
2019-Dec-14 05:59 122 6 gusting 14 11.1
2019-Dec-14 05:53 132 8 gusting 21 11.1
2019-Dec-14 05:49 184 6 gusting 21 11.1
2019-Dec-14 05:43 143 6 gusting 18 11.1
2019-Dec-14 05:39 146 7 gusting 18 11.1
2019-Dec-14 05:33 134 8 gusting 16 11.1
2019-Dec-14 05:29 169 7 gusting 15 11.1
2019-Dec-14 05:23 138 8 gusting 19 11.1
2019-Dec-14 05:19 153 7 gusting 19 11.1
2019-Dec-14 05:13 143 6 gusting 17 11.1
2019-Dec-14 05:09 142 6 gusting 14 11.1
2019-Dec-14 05:03 125 6 gusting 14 11.1
2019-Dec-14 04:59 133 6 gusting 16 11.1
2019-Dec-14 04:53 141 6 gusting 16 11.1
2019-Dec-14 04:49 107 7 gusting 14 11.1
2019-Dec-14 04:43 155 4 gusting 13 11.1
2019-Dec-14 04:39 160 6 gusting 13 11.1
2019-Dec-14 04:33 096 6 gusting 12 11.1
2019-Dec-14 04:29 158 6 gusting 12 11.1
2019-Dec-14 04:23 119 5 gusting 9 11.1
2019-Dec-14 04:19 088 6 gusting 11 11.1
2019-Dec-14 04:13 087 6 gusting 13 11.1
2019-Dec-14 04:09 103 6 gusting 12 11.1
2019-Dec-14 04:03 136 3 gusting 9 11.1
2019-Dec-14 03:59 096 4 gusting 8 11.1
2019-Dec-14 03:53 160 4 gusting 11 11.1
2019-Dec-14 03:49 106 4 gusting 11 11.1
2019-Dec-14 03:43 143 5 gusting 10 10.6
2019-Dec-14 03:39 142 5 gusting 10 11.1
2019-Dec-14 03:33 117 5 gusting 10 10.6
2019-Dec-14 03:29 145 5 gusting 10 10.6
2019-Dec-14 03:23 115 6 gusting 10 10.6
2019-Dec-14 03:19 131 4 gusting 9 10.6
2019-Dec-14 03:13 084 6 gusting 9 10.6
2019-Dec-14 03:09 093 4 gusting 9 10.6
2019-Dec-14 03:03 129 4 gusting 10 10.6
2019-Dec-14 02:59 113 4 gusting 10 10.6
2019-Dec-14 02:53 113 3 gusting 7 10.6
2019-Dec-14 02:50 091 3 gusting 7 10.6
2019-Dec-14 02:43 105 3 gusting 12 10.6
2019-Dec-14 02:39 088 5 gusting 12 10.6
2019-Dec-14 02:33 114 4 gusting 7 10.6
2019-Dec-14 02:29 135 3 gusting 6 10.6
2019-Dec-14 02:24 121 3 gusting 6 10.6
2019-Dec-14 02:20 128 3 gusting 6 10.6
2019-Dec-14 02:13 133 2 gusting 10 10.6
2019-Dec-14 02:09 082 3 gusting 10 10.6
2019-Dec-14 02:03 153 4 gusting 8 10.6
2019-Dec-14 01:59 080 3 gusting 8 10.6
2019-Dec-14 01:53 136 3 gusting 7 10.6
2019-Dec-14 01:49 090 2 gusting 10 10.6
2019-Dec-14 01:43 078 5 gusting 10 10.6
2019-Dec-14 01:39 105 1 gusting 9 10.6
2019-Dec-14 01:33 129 4 gusting 9 10.6
2019-Dec-14 01:29 092 4 gusting 8 10.6
2019-Dec-14 01:23 112 3 gusting 7 10.6
2019-Dec-14 01:19 113 4 gusting 7 10.0
2019-Dec-14 01:13 113 2 gusting 7 10.0
2019-Dec-14 01:09 126 3 gusting 7 10.0
2019-Dec-14 01:03 129 3 gusting 7 10.0
2019-Dec-14 00:59 134 4 gusting 8 10.0
2019-Dec-14 00:53 138 3 gusting 8 10.0
2019-Dec-14 00:49 104 2 gusting 8 10.0
2019-Dec-14 00:43 166 3 gusting 8 10.0
2019-Dec-14 00:39 115 2 gusting 6 10.0
2019-Dec-14 00:33 076 3 gusting 7 10.0
2019-Dec-14 00:29 135 3 gusting 7 10.0
2019-Dec-14 00:23 156 3 gusting 7 10.0
2019-Dec-14 00:19 133 3 gusting 7 10.0
2019-Dec-14 00:13 128 3 gusting 8 10.0
2019-Dec-14 00:09 132 3 gusting 8 10.0
2019-Dec-14 00:03 101 1 gusting 6 10.0
2019-Dec-13 23:59 126 3 gusting 6 10.0
2019-Dec-13 23:53 110 2 gusting 6 10.0
2019-Dec-13 23:49 081 2 gusting 6 10.0
2019-Dec-13 23:43 144 3 gusting 6 10.0
2019-Dec-13 23:39 161 2 gusting 6 10.0
2019-Dec-13 23:33 142 2 gusting 6 10.0
2019-Dec-13 23:29 140 3 gusting 7 10.0
2019-Dec-13 23:23 147 2 gusting 8 10.0
2019-Dec-13 23:19 106 2 gusting 8 10.0
2019-Dec-13 23:13 151 2 gusting 7 10.0
2019-Dec-13 23:09 185 2 gusting 7 10.0
2019-Dec-13 23:03 113 3 gusting 7 10.0
2019-Dec-13 22:59 138 4 gusting 6 10.0
2019-Dec-13 22:53 148 2 gusting 7 10.0
2019-Dec-13 22:49 117 1 gusting 7 10.0
2019-Dec-13 22:43 110 1 gusting 6 10.0
2019-Dec-13 22:39 129 1 gusting 6 10.0
2019-Dec-13 22:33 123 2 gusting 6 10.0
2019-Dec-13 22:29 126 2 gusting 6 10.0
2019-Dec-13 22:23 119 1 gusting 4 10.0
2019-Dec-13 22:19 096 1 gusting 6 10.0
2019-Dec-13 22:13 083 2 gusting 6 10.0
2019-Dec-13 22:09 134 1 gusting 5 10.0
2019-Dec-13 22:03 114 2 gusting 6 10.0
2019-Dec-13 21:59 140 3 gusting 6 10.0
2019-Dec-13 21:53 106 2 gusting 6 10.0
2019-Dec-13 21:49 144 1 gusting 7 10.0
2019-Dec-13 21:43 148 2 gusting 7 10.0
2019-Dec-13 21:39 148 2 gusting 5 10.0
2019-Dec-13 21:33 117 1 gusting 6 10.0
2019-Dec-13 21:29 117 2 gusting 7 10.0
2019-Dec-13 21:23 142 2 gusting 9 10.0
2019-Dec-13 21:19 124 3 gusting 9 10.0
2019-Dec-13 21:13 150 4 gusting 8 10.0
2019-Dec-13 21:09 121 3 gusting 8 10.0
2019-Dec-13 21:03 122 4 gusting 8 10.0
2019-Dec-13 20:59 204 3 gusting 6 10.0
2019-Dec-13 20:53 130 3 gusting 6 10.0
2019-Dec-13 20:49 104 2 gusting 6 10.0
2019-Dec-13 20:43 151 2 gusting 6 10.0
2019-Dec-13 20:39 170 2 gusting 6 10.0
2019-Dec-13 20:33 138 1 gusting 6 10.0
2019-Dec-13 20:29 165 2 gusting 6 10.0
2019-Dec-13 20:23 142 2 gusting 10 10.0
2019-Dec-13 20:19 125 1 gusting 10 10.0
2019-Dec-13 20:13 171 1 gusting 6 10.0
2019-Dec-13 20:09 161 1 gusting 6 10.0
2019-Dec-13 20:03 155 3 gusting 6 10.0
2019-Dec-13 19:59 125 2 gusting 6 10.0
2019-Dec-13 19:53 072 2 gusting 6 10.0
2019-Dec-13 19:49 160 2 gusting 6 10.0
2019-Dec-13 19:43 122 1 gusting 6 10.0
2019-Dec-13 19:39 134 2 gusting 6 10.0
2019-Dec-13 19:33 136 1 gusting 6 10.0
2019-Dec-13 19:29 128 2 gusting 6 10.0
2019-Dec-13 19:23 148 3 gusting 6 10.0
2019-Dec-13 19:19 150 2 gusting 8 10.0
2019-Dec-13 19:13 128 4 gusting 8 10.0
2019-Dec-13 19:09 179 2 gusting 6 10.0
2019-Dec-13 19:03 178 2 gusting 6 10.0
2019-Dec-13 18:59 131 1 gusting 6 10.0
2019-Dec-13 18:53 140 2 gusting 4 10.0
2019-Dec-13 18:49 160 1 gusting 5 10.0
2019-Dec-13 18:43 137 2 gusting 6 10.0
2019-Dec-13 18:39 142 3 gusting 6 10.0
2019-Dec-13 18:33 156 2 gusting 6 10.0
2019-Dec-13 18:29 160 2 gusting 6 9.4
2019-Dec-13 18:23 168 1 gusting 5 9.4
2019-Dec-13 18:19 161 2 gusting 4 9.4
2019-Dec-13 18:13 175 2 gusting 5 9.4
2019-Dec-13 18:09 150 3 gusting 5 10.0
2019-Dec-13 18:03 119 1 gusting 6 10.0
2019-Dec-13 17:59 136 2 gusting 6 10.0
2019-Dec-13 17:53 142 1 gusting 6 10.0
2019-Dec-13 17:49 151 3 gusting 7 10.0
2019-Dec-13 17:43 117 3 gusting 7 9.4
2019-Dec-13 17:39 149 2 gusting 6 9.4
2019-Dec-13 17:33 148 1 gusting 6 9.4
2019-Dec-13 17:29 158 2 gusting 6 9.4
2019-Dec-13 17:23 111 3 gusting 6 9.4
2019-Dec-13 17:19 205 1 gusting 6 9.4
2019-Dec-13 17:13 161 3 gusting 5 9.4
2019-Dec-13 17:09 109 3 gusting 8 9.4
2019-Dec-13 17:03 165 3 gusting 8 9.4
2019-Dec-13 16:59 169 3 gusting 6 9.4
2019-Dec-13 16:53 179 3 gusting 6 9.4
2019-Dec-13 16:49 182 2 gusting 6 9.4
2019-Dec-13 16:43 155 1 gusting 6 9.4
2019-Dec-13 16:39 180 2 gusting 7 9.4
2019-Dec-13 16:33 166 4 gusting 7 9.4
2019-Dec-13 16:29 173 3 gusting 7 9.4
2019-Dec-13 16:23 161 3 gusting 7 9.4
2019-Dec-13 16:19 180 2 gusting 8 9.4
2019-Dec-13 16:13 142 3 gusting 8 9.4
2019-Dec-13 16:09 181 2 gusting 8 8.9
2019-Dec-13 16:03 113 3 gusting 8 8.9
2019-Dec-13 15:59 165 3 gusting 8 9.4
2019-Dec-13 15:53 147 4 gusting 8 8.9
2019-Dec-13 15:49 141 3 gusting 8 8.9
2019-Dec-13 15:43 178 4 gusting 7 8.9
2019-Dec-13 15:39 169 4 gusting 7 8.9
2019-Dec-13 15:33 153 1 gusting 6 8.9
2019-Dec-13 15:29 192 2 gusting 10 8.9
2019-Dec-13 15:23 135 5 gusting 10 8.3
2019-Dec-13 15:19 144 5 gusting 8 8.3
2019-Dec-13 15:13 178 4 gusting 9 8.9
2019-Dec-13 15:09 184 5 gusting 10 8.9
2019-Dec-13 15:03 175 4 gusting 9 8.9